Cody, WY

7:36 AM MDT on October 19, 2017 (GMT -0600)
Yellowstone Regional

Weather History for KCOD - January, 2011

Change the Weather History Date:

Sunday, January 23, 2011

  Actual Average Record
Temperature  
Mean Temperature 35 °F -  
Max Temperature 42 °F 37 °F 62 °F (1970)
Min Temperature 28 °F 18 °F -24 °F (1963)
Degree Days  
Heating Degree Days 30    
Moisture  
Dew Point 13 °F    
Average Humidity 42    
Maximum Humidity 93    
Minimum Humidity 26    
Precipitation  
Precipitation 0.00 in - - ()
Sea Level Pressure  
Sea Level Pressure 29.89 in    
Wind  
Wind Speed 21 mph (WSW)    
Max Wind Speed 33 mph    
Max Gust Speed 47 mph    
Visibility 9 miles    
Events      
Averages and records for this station are not official NWS values.
T = Trace of Precipitation, MM = Missing Value Source: NWS Daily Summary

Daily Weather History Graph

Daily Weather History Graph

Search for Another Location

Airport or City:

Trip Planner

Search our weather history database for the weather conditions in past years. The results will help you decide how hot, cold, wet, or windy it might be!

Date:

Astronomy

Jan. 23, 2011 Rise Set
Actual Time 7:43 AM MST 5:12 PM MST
Civil Twilight 7:12 AM MST 5:44 PM MST
Nautical Twilight 6:36 AM MST 6:19 PM MST
Astronomical Twilight 6:02 AM MST 6:54 PM MST
Moon 10:32 PM MST (1/23) 9:28 AM MST (1/23)
Length of Visible Light 10h 32m
Length of Day
9h 28m
Waning Gibbous, 80% of the Moon is Illuminated
Jan 23
Waning Gibbous
Jan 26
Last Quarter
Feb 2
New
Feb 11
First Quarter
Feb 18
Full

Hourly Weather History & Observations

Time (MST) Temp. Windchill Dew Point Humidity Pressure Visibility Wind Dir Wind Speed Gust Speed Precip Events Conditions
12:35 AM 33.8 °F 22.8 °F 8.6 °F 35% 29.95 in 10.0 mi SW 18.4 mph 27.6 mph N/A   Clear
1:55 AM 33.8 °F 22.2 °F 6.8 °F 32% 29.91 in 10.0 mi WSW 20.7 mph 38.0 mph N/A   Clear
3:15 AM 33.8 °F 21.9 °F 6.8 °F 32% 29.91 in 10.0 mi WSW 21.9 mph 47.2 mph N/A   Clear
4:35 AM 33.8 °F 20.3 °F 6.8 °F 32% 29.89 in 10.0 mi SW 28.8 mph 42.6 mph N/A   Clear
5:35 AM 35.6 °F 23.4 °F 6.8 °F 30% 29.89 in 10.0 mi WSW 25.3 mph 32.2 mph N/A   Clear
7:15 AM 35.6 °F 25.2 °F 6.8 °F 30% 29.89 in 10.0 mi WSW 18.4 mph 24.2 mph N/A   Mostly Cloudy
8:35 AM 37.4 °F 27.5 °F 6.8 °F 28% 29.88 in 10.0 mi SW 18.4 mph 26.5 mph N/A   Mostly Cloudy
8:55 AM 39.2 °F 29.3 °F 8.6 °F 28% 29.88 in 10.0 mi SW 20.7 mph 28.8 mph N/A   Mostly Cloudy
9:15 AM 39.2 °F 27.6 °F 8.6 °F 28% 29.87 in 10.0 mi WSW 28.8 mph 39.1 mph N/A   Scattered Clouds
9:35 AM 39.2 °F 27.0 °F 8.6 °F 28% 29.86 in 10.0 mi WSW 32.2 mph 42.6 mph N/A   Clear
9:55 AM 39.2 °F 29.0 °F 8.6 °F 28% 29.86 in 10.0 mi WSW 21.9 mph 34.5 mph N/A   Clear
10:15 AM 39.2 °F 29.0 °F 8.6 °F 28% 29.87 in 10.0 mi WSW 21.9 mph 40.3 mph N/A   Clear
10:35 AM 39.2 °F 28.5 °F 8.6 °F 28% 29.88 in 10.0 mi WSW 24.2 mph 38.0 mph N/A   Clear
10:55 AM 41.0 °F 30.2 °F 8.6 °F 26% 29.87 in 10.0 mi WSW 27.6 mph 39.1 mph N/A   Clear
11:15 AM 41.0 °F 29.8 °F 8.6 °F 26% 29.85 in 10.0 mi WSW 29.9 mph 43.7 mph N/A   Clear
11:35 AM 41.0 °F 30.7 °F 8.6 °F 26% 29.85 in 10.0 mi WSW 25.3 mph 44.9 mph N/A   Clear
11:55 AM 41.0 °F 30.0 °F 8.6 °F 26% 29.84 in 10.0 mi SW 28.8 mph 40.3 mph N/A   Clear
12:15 PM 39.2 °F 26.8 °F 8.6 °F 28% 29.83 in 10.0 mi SW 33.4 mph 42.6 mph N/A   Clear
12:35 PM 39.2 °F 28.0 °F 10.4 °F 31% 29.83 in 10.0 mi SW 26.5 mph 43.7 mph N/A   Clear
12:55 PM 39.2 °F 28.7 °F 10.4 °F 31% 29.83 in 10.0 mi SW 23.0 mph 39.1 mph N/A   Clear
1:15 PM 39.2 °F 28.3 °F 10.4 °F 31% 29.83 in 10.0 mi WSW 25.3 mph 38.0 mph N/A   Clear
1:35 PM 39.2 °F 28.0 °F 10.4 °F 31% 29.83 in 10.0 mi SW 26.5 mph 40.3 mph N/A   Clear
1:55 PM 39.2 °F 31.6 °F 12.2 °F 33% 29.82 in 10.0 mi WSW 12.7 mph 35.7 mph N/A   Clear
2:15 PM 41.0 °F 30.9 °F 12.2 °F 31% 29.80 in 10.0 mi WSW 24.2 mph 42.6 mph N/A   Clear
2:35 PM 42.8 °F 32.9 °F 12.2 °F 29% 29.81 in 10.0 mi SW 26.5 mph 43.7 mph N/A   Clear
2:55 PM 42.8 °F 33.3 °F 12.2 °F 29% 29.81 in 10.0 mi SW 24.2 mph 43.7 mph N/A   Clear
3:15 PM 42.8 °F 32.7 °F 12.2 °F 29% 29.80 in 10.0 mi WSW 27.6 mph 43.7 mph N/A   Clear
3:35 PM 42.8 °F 32.5 °F 12.2 °F 29% 29.80 in 10.0 mi WSW 28.8 mph 39.1 mph N/A   Clear
3:55 PM 42.8 °F 33.5 °F 12.2 °F 29% 29.82 in 10.0 mi WSW 23.0 mph 34.5 mph N/A   Clear
4:15 PM 41.0 °F 31.4 °F 12.2 °F 31% 29.83 in 10.0 mi WSW 21.9 mph 31.1 mph N/A   Clear
4:35 PM 39.2 °F 28.7 °F 12.2 °F 33% 29.83 in 10.0 mi SW 23.0 mph 31.1 mph N/A   Clear
4:55 PM 39.2 °F 29.8 °F 12.2 °F 33% 29.84 in 10.0 mi SW 18.4 mph 27.6 mph N/A   Clear
5:15 PM 37.4 °F 28.9 °F 12.2 °F 36% 29.84 in 10.0 mi West 13.8 mph 25.3 mph N/A   Clear
5:35 PM 37.4 °F 30.8 °F 12.2 °F 36% 29.85 in 10.0 mi West 9.2 mph 20.7 mph N/A   Clear
5:55 PM 39.2 °F 31.2 °F 12.2 °F 33% 29.85 in 10.0 mi WSW 13.8 mph 21.9 mph N/A   Clear
6:15 PM 37.4 °F 28.9 °F 12.2 °F 36% 29.85 in 10.0 mi WSW 13.8 mph 23.0 mph N/A   Clear
6:35 PM 37.4 °F 34.9 °F 12.2 °F 36% 29.84 in 10.0 mi West 3.5 mph 18.4 mph N/A   Clear
6:55 PM 33.8 °F 23.5 °F 12.2 °F 41% 29.85 in 10.0 mi East 16.1 mph - N/A   Clear
7:15 PM 37.4 °F 31.4 °F 14.0 °F 38% 29.85 in 10.0 mi WSW 8.1 mph 26.5 mph N/A   Scattered Clouds
7:35 PM 35.6 °F 28.6 °F 14.0 °F 41% 29.87 in 10.0 mi NW 9.2 mph - N/A   Mostly Cloudy
7:55 PM 35.6 °F 24.2 °F 17.6 °F 48% 29.89 in 10.0 mi NW 21.9 mph 29.9 mph N/A   Mostly Cloudy
8:15 PM 33.8 °F 21.3 °F 17.6 °F 52% 29.93 in 10.0 mi NW 24.2 mph 35.7 mph N/A   Overcast
8:35 PM 30.2 °F 18.1 °F 21.2 °F 69% 29.97 in 8.0 mi NNW 18.4 mph 31.1 mph N/A   Overcast
8:55 PM 28.4 °F 16.2 °F 26.6 °F 93% 30.00 in 0.8 mi WNW 17.3 mph 44.9 mph N/A   Overcast
9:15 PM 28.4 °F 17.5 °F 26.6 °F 93% 30.02 in 0.5 mi WNW 13.8 mph 47.2 mph N/A   Overcast
9:35 PM 28.4 °F 19.7 °F 26.6 °F 93% 30.02 in 2.0 mi West 9.2 mph - N/A   Overcast
9:55 PM 28.4 °F 14.4 °F 24.8 °F 86% 30.03 in 5.0 mi NW 23.0 mph 28.8 mph N/A   Mostly Cloudy
10:15 PM 28.4 °F 16.6 °F 24.8 °F 86% 30.05 in 10.0 mi NW 16.1 mph 26.5 mph N/A   Mostly Cloudy
10:35 PM 28.4 °F 18.0 °F 24.8 °F 86% 30.06 in 10.0 mi WNW 12.7 mph 16.1 mph N/A   Overcast
10:55 PM 28.4 °F 17.5 °F 24.8 °F 86% 30.07 in 5.0 mi WNW 13.8 mph 19.6 mph N/A   Mostly Cloudy
11:15 PM 28.4 °F 17.5 °F 24.8 °F 86% 30.07 in 9.0 mi NW 13.8 mph 18.4 mph N/A   Overcast